Regional Weather Roundup
Issued by NWS Charleston, WV

Home | Current Version | Previous Version | Text Only | Print | Product List | Glossary Off
Versions: 1 2 3 4 5 6 7 8 9 10 11 12 13 14 15 16 17 18 19 20 21 22 23 24 25 26 27 28 29 30 31 32 33 34 35 36 37 38 39 40 41 42 43 44 45 46 47 48 49 50

000
ASUS41 KRLX 060410
RWRRLX
West Virginia Regional Weather Roundup
National Weather Service Charleston WV
1200 AM EDT FRI MAY 06 2016

Note: "fair" indicates few or no clouds below 12,000 feet with no
significant weather and/or obstructions to visibility.

WVZ003-060500-
Northern Panhandle of West Virginia

CITY           SKY/WX    TMP DP  RH WIND       PRES   REMARKS
WHEELING         N/A     50  43  77 N9        29.77S
$$

WVZ009-060500-
Northwest West Virginia

CITY           SKY/WX    TMP DP  RH WIND       PRES   REMARKS
PARKERSBURG    CLOUDY    51  48  89 NW5       29.81S
$$

WVZ006-060500-
Western West Virginia

CITY           SKY/WX    TMP DP  RH WIND       PRES   REMARKS
HUNTINGTON       N/A     50  46  86 NW6       29.82S
$$

WVZ015-060500-
West Central West Virginia

CITY           SKY/WX    TMP DP  RH WIND       PRES   REMARKS
CHARLESTON     DRIZZLE   51  49  92 NW5       29.79S
$$

WVZ022-031-060500-
North Central West Virginia

CITY           SKY/WX    TMP DP  RH WIND       PRES   REMARKS
CLARKSBURG     CLOUDY    51  48  89 NW5       29.75R
MORGANTOWN     CLOUDY    52  47  83 CALM      29.75S
$$

WVZ025-035-042-045-060500-
Southern West Virginia

CITY           SKY/WX    TMP DP  RH WIND       PRES   REMARKS
BECKLEY        LGT RAIN  45  43  93 NW7       29.76F
LOGAN          NOT AVBL
BLUEFIELD      LGT RAIN  42  40  92 W7        29.77F
LEWISBURG      DRIZZLE   44  43  97 CALM      29.74S
$$

WVZ047-060500-
Northern Mountains of West Virginia

CITY           SKY/WX    TMP DP  RH WIND       PRES   REMARKS
ELKINS         RAIN      48  43  82 CALM      29.73F
$$

WVZ052-060500-
Eastern Panhandle of West Virginia

CITY           SKY/WX    TMP DP  RH WIND       PRES   REMARKS
MARTINSBURG    RAIN      51  49  92 N5        29.70S FOG
PETERSBURG     LGT RAIN  53  51  94 CALM      29.72S
$$



USA.gov is the U.S. government's official web portal to all federal, state and local government web resources and services.